Time,TemperatureF,DewpointF,PressureIn,WindDirection,WindDirectionDegrees,WindSpeedMPH,WindSpeedGustMPH,Humidity,HourlyPrecipIn,Conditions,Clouds,dailyrainin,SoftwareType,DateUTC
2013-02-15 00:00:00,31.8,17.5,29.65,NNW,332,0.0,0.0,55,0.00,,,0.00,VWS V14.01,2013-02-15 05:00:00,
2013-02-15 00:05:00,31.6,17.3,29.65,NNW,332,0.0,0.0,55,0.00,,,0.00,VWS V14.01,2013-02-15 05:05:00,
2013-02-15 00:10:00,31.6,17.3,29.65,NNW,332,0.0,0.0,55,0.00,,,0.00,VWS V14.01,2013-02-15 05:10:00,
2013-02-15 00:15:00,31.5,17.2,29.65,NNW,332,0.0,0.0,55,0.00,,,0.00,VWS V14.01,2013-02-15 05:15:00,
2013-02-15 00:20:00,31.5,17.2,29.65,NNW,332,0.0,0.0,55,0.00,,,0.00,VWS V14.01,2013-02-15 05:20:00,
2013-02-15 00:25:00,31.1,16.8,29.65,NNW,332,0.0,0.0,55,0.00,,,0.00,VWS V14.01,2013-02-15 05:25:00,
2013-02-15 00:30:00,30.9,16.7,29.65,NNW,332,0.0,0.0,55,0.00,,,0.00,VWS V14.01,2013-02-15 05:30:00,
2013-02-15 00:35:00,30.7,16.9,29.65,NNW,332,0.0,0.0,56,0.00,,,0.00,VWS V14.01,2013-02-15 05:35:00,
2013-02-15 00:40:00,30.2,16.4,29.65,NNW,332,0.0,0.0,56,0.00,,,0.00,VWS V14.01,2013-02-15 05:40:00,
2013-02-15 00:45:00,30.0,16.2,29.65,NNW,332,0.0,0.0,56,0.00,,,0.00,VWS V14.01,2013-02-15 05:45:00,
2013-02-15 00:50:00,29.7,15.9,29.65,NNW,332,0.0,0.0,56,0.00,,,0.00,VWS V14.01,2013-02-15 05:50:00,
2013-02-15 00:55:00,29.5,15.7,29.65,NNW,332,0.0,0.0,56,0.00,,,0.00,VWS V14.01,2013-02-15 05:55:00,
2013-02-15 01:00:00,28.9,15.2,29.65,NNW,332,0.0,0.0,56,0.00,,,0.00,VWS V14.01,2013-02-15 06:00:00,
2013-02-15 01:05:00,28.6,15.3,29.65,NNW,332,0.0,0.0,57,0.00,,,0.00,VWS V14.01,2013-02-15 06:05:00,
2013-02-15 01:10:00,28.4,15.1,29.65,NNW,332,0.0,0.0,57,0.00,,,0.00,VWS V14.01,2013-02-15 06:10:00,
2013-02-15 01:15:00,28.0,14.8,29.65,NNW,332,0.0,0.0,57,0.00,,,0.00,VWS V14.01,2013-02-15 06:15:00,
2013-02-15 01:20:00,27.9,14.6,29.65,NNW,332,0.0,0.0,57,0.00,,,0.00,VWS V14.01,2013-02-15 06:20:00,
2013-02-15 01:25:00,27.5,14.7,29.65,NNW,332,0.0,0.0,58,0.00,,,0.00,VWS V14.01,2013-02-15 06:25:00,
2013-02-15 01:30:00,27.5,14.7,29.65,NNW,332,0.0,0.0,58,0.00,,,0.00,VWS V14.01,2013-02-15 06:30:00,
2013-02-15 01:35:00,27.9,16.2,29.65,NNW,332,0.0,0.0,61,0.00,,,0.00,VWS V14.01,2013-02-15 06:35:00,
2013-02-15 01:40:00,27.9,16.2,29.68,NNW,332,0.0,0.0,61,0.00,,,0.00,VWS V14.01,2013-02-15 06:40:00,
2013-02-15 01:45:00,27.9,16.2,29.68,NNW,332,0.0,0.0,61,0.00,,,0.00,VWS V14.01,2013-02-15 06:45:00,
2013-02-15 01:50:00,27.9,16.5,29.68,NNW,332,0.0,0.0,62,0.00,,,0.00,VWS V14.01,2013-02-15 06:50:00,
2013-02-15 01:55:00,28.2,17.3,29.68,NNW,332,0.0,0.0,63,0.00,,,0.00,VWS V14.01,2013-02-15 06:55:00,
2013-02-15 02:00:00,28.6,18.0,29.68,NW,321,0.0,0.0,64,0.00,,,0.00,VWS V14.01,2013-02-15 07:00:00,
2013-02-15 02:05:00,28.8,18.5,29.68,NW,321,0.0,0.0,65,0.00,,,0.00,VWS V14.01,2013-02-15 07:05:00,
2013-02-15 02:10:00,28.9,19.0,29.68,NW,321,0.0,0.0,66,0.00,,,0.00,VWS V14.01,2013-02-15 07:10:00,
2013-02-15 02:15:00,29.1,19.5,29.65,NW,321,0.0,0.0,67,0.00,,,0.00,VWS V14.01,2013-02-15 07:15:00,
2013-02-15 02:20:00,29.1,19.5,29.65,NW,318,0.0,0.0,67,0.00,,,0.00,VWS V14.01,2013-02-15 07:20:00,
2013-02-15 02:25:00,29.1,19.9,29.65,NW,318,0.0,0.0,68,0.00,,,0.00,VWS V14.01,2013-02-15 07:25:00,
2013-02-15 02:30:00,29.3,20.4,29.65,NW,318,0.0,0.0,69,0.00,,,0.00,VWS V14.01,2013-02-15 07:30:00,
2013-02-15 02:35:00,29.3,20.4,29.65,NW,318,0.0,0.0,69,0.00,,,0.00,VWS V14.01,2013-02-15 07:35:00,
2013-02-15 02:40:00,29.3,20.7,29.65,NW,318,0.0,0.0,70,0.00,,,0.00,VWS V14.01,2013-02-15 07:40:00,
2013-02-15 02:45:00,29.3,20.7,29.65,NW,318,0.0,0.0,70,0.00,,,0.00,VWS V14.01,2013-02-15 07:45:00,
2013-02-15 02:50:00,29.3,20.7,29.65,NW,318,0.0,0.0,70,0.00,,,0.00,VWS V14.01,2013-02-15 07:50:00,
2013-02-15 02:55:00,29.3,21.1,29.65,NW,318,0.0,0.0,71,0.00,,,0.00,VWS V14.01,2013-02-15 07:55:00,
2013-02-15 03:00:00,29.1,20.6,29.65,NW,318,0.0,0.0,70,0.00,,,0.00,VWS V14.01,2013-02-15 08:00:00,
2013-02-15 03:05:00,28.9,20.4,29.65,NW,318,0.0,0.0,70,0.00,,,0.00,VWS V14.01,2013-02-15 08:05:00,
2013-02-15 03:10:00,28.9,20.4,29.65,NW,318,0.0,0.0,70,0.00,,,0.00,VWS V14.01,2013-02-15 08:10:00,
2013-02-15 03:15:00,28.8,20.2,29.65,WSW,257,0.0,0.0,70,0.00,,,0.00,VWS V14.01,2013-02-15 08:15:00,
2013-02-15 03:20:00,28.8,20.2,29.65,WSW,257,0.0,0.0,70,0.00,,,0.00,VWS V14.01,2013-02-15 08:20:00,
2013-02-15 03:25:00,28.8,20.2,29.65,WSW,257,0.0,0.0,70,0.00,,,0.00,VWS V14.01,2013-02-15 08:25:00,
2013-02-15 03:30:00,28.8,20.2,29.65,WSW,257,0.0,0.0,70,0.00,,,0.00,VWS V14.01,2013-02-15 08:30:00,
2013-02-15 03:35:00,28.8,20.2,29.65,WSW,257,0.0,0.0,70,0.00,,,0.00,VWS V14.01,2013-02-15 08:35:00,
2013-02-15 03:40:00,28.8,20.6,29.65,WSW,257,0.0,0.0,71,0.00,,,0.00,VWS V14.01,2013-02-15 08:40:00,
2013-02-15 03:45:00,28.9,21.1,29.65,WSW,257,0.0,0.0,72,0.00,,,0.00,VWS V14.01,2013-02-15 08:45:00,
2013-02-15 03:50:00,28.9,21.4,29.65,WSW,257,0.0,0.0,73,0.00,,,0.00,VWS V14.01,2013-02-15 08:50:00,
2013-02-15 03:55:00,28.9,21.4,29.65,WSW,257,0.0,0.0,73,0.00,,,0.00,VWS V14.01,2013-02-15 08:55:00,
2013-02-15 04:00:00,29.1,21.9,29.65,WSW,257,0.0,0.0,74,0.00,,,0.00,VWS V14.01,2013-02-15 09:00:00,
2013-02-15 04:05:00,29.5,22.5,29.65,NNW,327,0.0,0.0,75,0.00,,,0.00,VWS V14.01,2013-02-15 09:05:00,
2013-02-15 04:10:00,29.5,22.9,29.65,NNW,327,0.0,0.0,76,0.00,,,0.00,VWS V14.01,2013-02-15 09:10:00,
2013-02-15 04:15:00,29.3,22.4,29.65,NNW,327,0.0,0.0,75,0.00,,,0.00,VWS V14.01,2013-02-15 09:15:00,
2013-02-15 04:20:00,29.1,22.2,29.65,NNW,327,0.0,0.0,75,0.00,,,0.00,VWS V14.01,2013-02-15 09:20:00,
2013-02-15 04:25:00,28.9,22.0,29.65,NNW,327,0.0,0.0,75,0.00,,,0.00,VWS V14.01,2013-02-15 09:25:00,
2013-02-15 04:30:00,28.8,21.9,29.65,NNW,327,0.0,0.0,75,0.00,,,0.00,VWS V14.01,2013-02-15 09:30:00,
2013-02-15 04:35:00,28.8,22.2,29.65,NNW,327,0.0,0.0,76,0.00,,,0.00,VWS V14.01,2013-02-15 09:35:00,
2013-02-15 04:40:00,28.9,22.6,29.65,NNW,327,0.0,0.0,77,0.00,,,0.00,VWS V14.01,2013-02-15 09:40:00,
2013-02-15 04:45:00,29.1,22.8,29.65,NNW,327,0.0,0.0,77,0.00,,,0.00,VWS V14.01,2013-02-15 09:45:00,
2013-02-15 04:50:00,29.7,24.0,29.65,WNW,301,2.2,2.2,79,0.00,,,0.00,VWS V14.01,2013-02-15 09:50:00,
2013-02-15 04:55:00,30.4,25.3,29.65,WSW,248,2.7,2.7,81,0.00,,,0.00,VWS V14.01,2013-02-15 09:55:00,
2013-02-15 05:00:00,30.7,26.2,29.65,WNW,294,0.0,0.0,83,0.00,,,0.00,VWS V14.01,2013-02-15 10:00:00,
2013-02-15 05:05:00,31.1,26.8,29.65,WNW,294,0.0,0.0,84,0.00,,,0.00,VWS V14.01,2013-02-15 10:05:00,
2013-02-15 05:09:00,31.1,27.1,29.65,WSW,256,2.2,2.2,85,0.00,,,0.00,VWS V14.01,2013-02-15 10:09:00,
2013-02-15 05:14:00,31.3,27.3,29.65,WSW,247,0.0,0.0,85,0.00,,,0.00,VWS V14.01,2013-02-15 10:14:00,
2013-02-15 05:19:00,31.6,27.7,29.65,WSW,256,0.0,0.0,85,0.00,,,0.00,VWS V14.01,2013-02-15 10:19:00,
2013-02-15 05:24:00,31.8,27.8,29.65,WSW,240,2.7,2.7,85,0.00,,,0.00,VWS V14.01,2013-02-15 10:24:00,
2013-02-15 05:29:00,32.0,28.0,29.65,SW,236,0.0,0.0,85,0.00,,,0.00,VWS V14.01,2013-02-15 10:29:00,
2013-02-15 05:34:00,32.2,28.2,29.65,WSW,251,0.0,0.0,85,0.00,,,0.00,VWS V14.01,2013-02-15 10:34:00,
2013-02-15 05:39:00,32.5,28.8,29.65,WSW,255,0.0,0.0,86,0.00,,,0.00,VWS V14.01,2013-02-15 10:39:00,
2013-02-15 05:44:00,32.5,28.8,29.65,WSW,255,0.0,0.0,86,0.00,,,0.00,VWS V14.01,2013-02-15 10:44:00,
2013-02-15 05:49:00,32.9,29.5,29.65,WSW,246,0.0,0.0,87,0.00,,,0.00,VWS V14.01,2013-02-15 10:49:00,
2013-02-15 05:54:00,33.1,29.9,29.65,WNW,286,0.0,0.0,88,0.00,,,0.00,VWS V14.01,2013-02-15 10:54:00,
2013-02-15 06:00:00,33.1,29.9,29.65,WSW,249,0.0,0.0,88,0.00,,,0.00,VWS V14.01,2013-02-15 11:00:00,
2013-02-15 06:05:00,33.3,30.1,29.65,SW,217,0.0,2.2,88,0.00,,,0.00,VWS V14.01,2013-02-15 11:05:00,
2013-02-15 06:10:00,33.4,30.5,29.65,SW,218,0.0,0.0,89,0.00,,,0.00,VWS V14.01,2013-02-15 11:10:00,
2013-02-15 06:14:00,33.4,30.5,29.65,SE,124,0.0,0.0,89,0.00,,,0.00,VWS V14.01,2013-02-15 11:14:00,
2013-02-15 06:19:00,33.4,30.5,29.65,WSW,245,0.0,0.0,89,0.00,,,0.00,VWS V14.01,2013-02-15 11:19:00,
2013-02-15 06:24:00,33.6,30.7,29.65,WSW,250,0.0,0.0,89,0.00,,,0.00,VWS V14.01,2013-02-15 11:24:00,
2013-02-15 06:30:00,33.6,30.7,29.65,WSW,251,0.0,0.0,89,0.00,,,0.00,VWS V14.01,2013-02-15 11:30:00,
2013-02-15 06:34:00,33.6,30.7,29.65,SW,229,0.0,0.0,89,0.00,,,0.00,VWS V14.01,2013-02-15 11:34:00,
2013-02-15 06:39:00,33.8,30.9,29.65,West,265,0.0,0.0,89,0.00,,,0.00,VWS V14.01,2013-02-15 11:39:00,
2013-02-15 06:44:00,33.8,30.9,29.65,West,265,0.0,0.0,89,0.00,,,0.00,VWS V14.01,2013-02-15 11:44:00,
2013-02-15 06:49:00,34.0,31.1,29.65,West,263,0.0,0.0,89,0.00,,,0.00,VWS V14.01,2013-02-15 11:49:00,
2013-02-15 06:54:00,33.8,30.9,29.65,West,263,0.0,0.0,89,0.00,,,0.00,VWS V14.01,2013-02-15 11:54:00,
2013-02-15 06:59:00,33.8,30.9,29.65,West,261,0.0,0.0,89,0.00,,,0.00,VWS V14.01,2013-02-15 11:59:00,
2013-02-15 07:04:00,33.8,30.9,29.65,West,261,0.0,0.0,89,0.00,,,0.00,VWS V14.01,2013-02-15 12:04:00,
2013-02-15 07:09:00,33.8,30.9,29.65,West,261,0.0,0.0,89,0.00,,,0.00,VWS V14.01,2013-02-15 12:09:00,
2013-02-15 07:14:00,34.0,31.1,29.65,SW,223,0.0,0.0,89,0.00,,,0.00,VWS V14.01,2013-02-15 12:14:00,
2013-02-15 07:19:00,34.0,31.1,29.65,SW,223,0.0,0.0,89,0.00,,,0.00,VWS V14.01,2013-02-15 12:19:00,
2013-02-15 07:24:00,34.3,31.4,29.65,SW,223,0.0,0.0,89,0.00,,,0.00,VWS V14.01,2013-02-15 12:24:00,
2013-02-15 07:29:00,34.5,31.6,29.65,SW,221,0.0,0.0,89,0.00,,,0.00,VWS V14.01,2013-02-15 12:29:00,
2013-02-15 07:34:00,34.7,31.8,29.65,SE,128,0.0,0.0,89,0.00,,,0.00,VWS V14.01,2013-02-15 12:34:00,
2013-02-15 07:39:00,35.1,32.2,29.65,SE,124,0.0,0.0,89,0.00,,,0.00,VWS V14.01,2013-02-15 12:39:00,
2013-02-15 07:44:00,35.4,32.5,29.65,SE,124,0.0,0.0,89,0.00,,,0.00,VWS V14.01,2013-02-15 12:44:00,
2013-02-15 07:49:00,35.8,32.9,29.65,SSW,197,4.0,4.0,89,0.00,,,0.00,VWS V14.01,2013-02-15 12:49:00,
2013-02-15 07:54:00,35.8,32.9,29.65,WSW,245,0.0,0.0,89,0.00,,,0.00,VWS V14.01,2013-02-15 12:54:00,
2013-02-15 07:59:00,36.1,33.2,29.65,SW,236,0.0,0.0,89,0.00,,,0.00,VWS V14.01,2013-02-15 12:59:00,
2013-02-15 08:04:00,36.7,33.8,29.65,WSW,252,0.0,0.0,89,0.00,,,0.00,VWS V14.01,2013-02-15 13:04:00,
2013-02-15 08:09:00,37.0,34.1,29.65,WSW,252,0.0,0.0,89,0.00,,,0.00,VWS V14.01,2013-02-15 13:09:00,
2013-02-15 08:14:00,37.4,34.5,29.65,WSW,244,4.9,4.9,89,0.00,,,0.00,VWS V14.01,2013-02-15 13:14:00,
2013-02-15 08:19:00,37.4,34.2,29.65,WSW,253,2.7,2.7,88,0.00,,,0.00,VWS V14.01,2013-02-15 13:19:00,
2013-02-15 08:24:00,37.4,34.2,29.65,WSW,257,0.0,2.7,88,0.00,,,0.00,VWS V14.01,2013-02-15 13:24:00,
2013-02-15 08:29:00,37.8,34.0,29.65,South,182,0.0,0.0,86,0.00,,,0.00,VWS V14.01,2013-02-15 13:29:00,
2013-02-15 08:34:00,38.1,34.0,29.65,SSE,162,4.0,4.0,85,0.00,,,0.00,VWS V14.01,2013-02-15 13:34:00,
2013-02-15 08:39:00,38.7,34.0,29.65,WSW,249,0.0,0.0,83,0.00,,,0.00,VWS V14.01,2013-02-15 13:39:00,
2013-02-15 08:44:00,39.2,33.9,29.65,SW,235,0.0,0.0,81,0.00,,,0.00,VWS V14.01,2013-02-15 13:44:00,
2013-02-15 08:49:00,39.6,33.3,29.65,SW,223,0.0,0.0,78,0.00,,,0.00,VWS V14.01,2013-02-15 13:49:00,
2013-02-15 08:54:00,39.9,33.0,29.65,SW,223,0.0,0.0,76,0.00,,,0.00,VWS V14.01,2013-02-15 13:54:00,
2013-02-15 08:59:00,40.3,32.7,29.65,WSW,241,0.0,0.0,74,0.00,,,0.00,VWS V14.01,2013-02-15 13:59:00,
2013-02-15 09:04:00,40.5,28.5,29.65,West,267,6.3,6.3,62,0.00,,,0.00,VWS V14.01,2013-02-15 14:04:00,
2013-02-15 09:09:00,40.6,27.5,29.65,WSW,256,4.0,4.0,59,0.00,,,0.00,VWS V14.01,2013-02-15 14:09:00,
2013-02-15 09:14:00,41.2,26.7,29.65,West,279,0.0,2.7,56,0.00,,,0.00,VWS V14.01,2013-02-15 14:14:00,
2013-02-15 09:19:00,41.4,26.4,29.65,WSW,244,2.7,2.7,55,0.00,,,0.00,VWS V14.01,2013-02-15 14:19:00,
2013-02-15 09:24:00,41.5,25.7,29.65,WSW,247,4.0,4.0,53,0.00,,,0.00,VWS V14.01,2013-02-15 14:24:00,
2013-02-15 09:29:00,42.1,25.7,29.65,WNW,289,3.1,3.1,52,0.00,,,0.00,VWS V14.01,2013-02-15 14:29:00,
2013-02-15 09:34:00,42.3,25.9,29.65,SW,219,4.9,4.9,52,0.00,,,0.00,VWS V14.01,2013-02-15 14:34:00,
2013-02-15 09:39:00,42.4,25.6,29.65,West,271,5.4,6.7,51,0.00,,,0.00,VWS V14.01,2013-02-15 14:39:00,
2013-02-15 09:44:00,42.8,25.5,29.65,SW,214,3.6,3.6,50,0.00,,,0.00,VWS V14.01,2013-02-15 14:44:00,
2013-02-15 09:49:00,43.3,25.5,29.65,West,267,6.7,6.7,49,0.00,,,0.00,VWS V14.01,2013-02-15 14:49:00,
2013-02-15 09:54:00,43.7,25.8,29.65,West,260,2.7,2.7,49,0.00,,,0.00,VWS V14.01,2013-02-15 14:54:00,
2013-02-15 09:59:00,44.1,25.6,29.65,WSW,256,5.4,5.4,48,0.00,,,0.00,VWS V14.01,2013-02-15 14:59:00,
2013-02-15 10:04:00,44.1,25.6,29.65,SW,233,2.2,2.2,48,0.00,,,0.00,VWS V14.01,2013-02-15 15:04:00,
2013-02-15 10:09:00,44.2,25.8,29.65,WNW,286,5.4,5.4,48,0.00,,,0.00,VWS V14.01,2013-02-15 15:09:00,
2013-02-15 10:14:00,44.8,26.3,29.65,WNW,283,2.7,2.7,48,0.00,,,0.00,VWS V14.01,2013-02-15 15:14:00,
2013-02-15 10:19:00,45.3,26.8,29.65,West,277,2.2,2.2,48,0.00,,,0.00,VWS V14.01,2013-02-15 15:19:00,
2013-02-15 10:24:00,45.9,25.7,29.65,West,262,3.1,3.1,45,0.00,,,0.00,VWS V14.01,2013-02-15 15:24:00,
2013-02-15 10:29:00,46.0,25.9,29.65,WSW,254,7.2,7.2,45,0.00,,,0.00,VWS V14.01,2013-02-15 15:29:00,
2013-02-15 10:34:00,46.0,25.9,29.65,NW,306,0.0,2.7,45,0.00,,,0.00,VWS V14.01,2013-02-15 15:34:00,
2013-02-15 10:39:00,46.6,25.9,29.65,WSW,239,3.6,3.6,44,0.00,,,0.00,VWS V14.01,2013-02-15 15:39:00,
2013-02-15 10:44:00,47.3,26.0,29.65,WSW,257,6.3,6.3,43,0.00,,,0.00,VWS V14.01,2013-02-15 15:44:00,
2013-02-15 10:49:00,47.3,25.4,29.65,West,273,5.4,5.4,42,0.00,,,0.00,VWS V14.01,2013-02-15 15:49:00,
2013-02-15 10:54:00,47.7,25.7,29.65,SW,215,4.0,4.0,42,0.00,,,0.00,VWS V14.01,2013-02-15 15:54:00,
2013-02-15 10:59:00,48.0,26.0,29.65,West,262,5.8,5.8,42,0.00,,,0.00,VWS V14.01,2013-02-15 15:59:00,
2013-02-15 11:04:00,48.2,25.6,29.65,SW,215,3.1,5.8,41,0.00,,,0.00,VWS V14.01,2013-02-15 16:04:00,
2013-02-15 11:09:00,48.4,25.2,29.65,WSW,256,4.0,4.0,40,0.00,,,0.00,VWS V14.01,2013-02-15 16:09:00,
2013-02-15 11:14:00,48.6,26.0,29.65,WSW,250,6.3,6.3,41,0.00,,,0.00,VWS V14.01,2013-02-15 16:14:00,
2013-02-15 11:19:00,48.6,26.0,29.65,WNW,289,3.1,3.1,41,0.00,,,0.00,VWS V14.01,2013-02-15 16:19:00,
2013-02-15 11:24:00,48.6,26.0,29.65,SW,220,5.8,5.8,41,0.00,,,0.00,VWS V14.01,2013-02-15 16:24:00,
2013-02-15 11:29:00,48.7,26.1,29.65,SW,227,4.0,4.0,41,0.00,,,0.00,VWS V14.01,2013-02-15 16:29:00,
2013-02-15 11:34:00,48.7,26.1,29.65,WSW,238,5.8,7.2,41,0.00,,,0.00,VWS V14.01,2013-02-15 16:34:00,
2013-02-15 11:39:00,48.6,26.0,29.65,WSW,237,4.0,4.0,41,0.00,,,0.00,VWS V14.01,2013-02-15 16:39:00,
2013-02-15 11:44:00,48.7,26.1,29.65,West,275,6.3,6.3,41,0.00,,,0.00,VWS V14.01,2013-02-15 16:44:00,
2013-02-15 11:49:00,48.7,26.1,29.65,SW,216,3.1,3.1,41,0.00,,,0.00,VWS V14.01,2013-02-15 16:49:00,
2013-02-15 11:54:00,48.7,26.1,29.65,WSW,244,9.6,9.6,41,0.00,,,0.00,VWS V14.01,2013-02-15 16:54:00,
2013-02-15 11:59:00,48.7,26.1,29.65,WNW,299,5.8,5.8,41,0.00,,,0.00,VWS V14.01,2013-02-15 16:59:00,
2013-02-15 12:04:00,48.7,26.7,29.62,WNW,285,4.0,4.0,42,0.00,,,0.00,VWS V14.01,2013-02-15 17:04:00,
2013-02-15 12:09:00,48.7,26.1,29.62,NW,307,0.0,0.0,41,0.00,,,0.00,VWS V14.01,2013-02-15 17:09:00,
2013-02-15 12:14:00,48.9,26.3,29.62,WNW,284,2.7,3.1,41,0.00,,,0.00,VWS V14.01,2013-02-15 17:14:00,
2013-02-15 12:19:00,49.6,26.9,29.62,SW,214,4.0,6.3,41,0.00,,,0.00,VWS V14.01,2013-02-15 17:19:00,
2013-02-15 12:24:00,49.5,26.8,29.62,SW,233,2.7,2.7,41,0.00,,,0.00,VWS V14.01,2013-02-15 17:24:00,
2013-02-15 12:29:00,49.5,27.3,29.62,WSW,255,5.4,5.4,42,0.00,,,0.00,VWS V14.01,2013-02-15 17:29:00,
2013-02-15 12:34:00,49.6,26.9,29.62,SW,217,7.6,7.6,41,0.00,,,0.00,VWS V14.01,2013-02-15 17:34:00,
2013-02-15 12:39:00,49.6,27.5,29.62,WSW,246,7.6,7.6,42,0.00,,,0.00,VWS V14.01,2013-02-15 17:39:00,
2013-02-15 12:44:00,49.6,26.9,29.62,West,271,3.1,3.1,41,0.00,,,0.00,VWS V14.01,2013-02-15 17:44:00,
2013-02-15 12:49:00,50.0,27.2,29.62,SW,230,4.0,4.0,41,0.00,,,0.00,VWS V14.01,2013-02-15 17:49:00,
2013-02-15 12:54:00,50.2,27.4,29.62,SW,220,2.7,2.7,41,0.00,,,0.00,VWS V14.01,2013-02-15 17:54:00,
2013-02-15 12:59:00,50.5,27.1,29.59,SSW,200,3.6,5.4,40,0.00,,,0.00,VWS V14.01,2013-02-15 17:59:00,
2013-02-15 13:04:00,50.7,27.3,29.59,WSW,258,0.0,0.0,40,0.00,,,0.00,VWS V14.01,2013-02-15 18:04:00,
2013-02-15 13:09:00,50.9,27.5,29.59,WNW,287,2.7,3.6,40,0.00,,,0.00,VWS V14.01,2013-02-15 18:09:00,
2013-02-15 13:14:00,51.3,27.8,29.59,WNW,284,4.0,4.0,40,0.00,,,0.00,VWS V14.01,2013-02-15 18:14:00,
2013-02-15 13:19:00,51.3,27.2,29.59,SW,216,2.2,2.2,39,0.00,,,0.00,VWS V14.01,2013-02-15 18:19:00,
2013-02-15 13:24:00,51.6,28.1,29.59,WSW,246,0.0,0.0,40,0.00,,,0.00,VWS V14.01,2013-02-15 18:24:00,
2013-02-15 13:29:00,52.0,27.8,29.59,SW,223,7.6,7.6,39,0.00,,,0.00,VWS V14.01,2013-02-15 18:29:00,
2013-02-15 13:34:00,52.0,27.8,29.59,SW,223,3.6,3.6,39,0.00,,,0.00,VWS V14.01,2013-02-15 18:34:00,
2013-02-15 13:39:00,52.2,28.0,29.59,West,270,2.7,3.6,39,0.00,,,0.00,VWS V14.01,2013-02-15 18:39:00,
2013-02-15 13:44:00,52.2,28.0,29.59,SSW,198,3.1,3.1,39,0.00,,,0.00,VWS V14.01,2013-02-15 18:44:00,
2013-02-15 13:49:00,52.3,27.5,29.59,WNW,288,7.6,7.6,38,0.00,,,0.00,VWS V14.01,2013-02-15 18:49:00,
2013-02-15 13:54:00,52.0,27.2,29.59,NNW,332,8.1,8.1,38,0.00,,,0.00,VWS V14.01,2013-02-15 18:54:00,
2013-02-15 13:59:00,51.8,27.0,29.59,WSW,258,2.7,2.7,38,0.00,,,0.00,VWS V14.01,2013-02-15 18:59:00,
2013-02-15 14:04:00,52.0,27.2,29.59,WSW,257,4.0,4.0,38,0.00,,,0.00,VWS V14.01,2013-02-15 19:04:00,
2013-02-15 14:09:00,52.5,27.7,29.59,WNW,302,5.8,5.8,38,0.00,,,0.00,VWS V14.01,2013-02-15 19:09:00,
2013-02-15 14:14:00,52.3,27.5,29.59,SW,229,6.3,8.7,38,0.00,,,0.00,VWS V14.01,2013-02-15 19:14:00,
2013-02-15 14:19:00,52.2,27.3,29.59,West,271,2.2,3.1,38,0.00,,,0.00,VWS V14.01,2013-02-15 19:19:00,
2013-02-15 14:24:00,52.3,27.5,29.59,West,268,2.7,2.7,38,0.00,,,0.00,VWS V14.01,2013-02-15 19:24:00,
2013-02-15 14:29:00,52.3,27.5,29.59,NW,308,3.1,3.1,38,0.00,,,0.00,VWS V14.01,2013-02-15 19:29:00,
2013-02-15 14:34:00,52.3,27.5,29.59,WSW,250,2.2,2.2,38,0.00,,,0.00,VWS V14.01,2013-02-15 19:34:00,
2013-02-15 14:39:00,52.3,27.5,29.59,WSW,252,8.1,8.1,38,0.00,,,0.00,VWS V14.01,2013-02-15 19:39:00,
2013-02-15 14:44:00,52.3,27.5,29.59,WNW,286,2.7,2.7,38,0.00,,,0.00,VWS V14.01,2013-02-15 19:44:00,
2013-02-15 14:49:00,52.2,27.3,29.59,WNW,303,0.0,4.0,38,0.00,,,0.00,VWS V14.01,2013-02-15 19:49:00,
2013-02-15 14:54:00,52.2,27.3,29.59,WSW,238,3.1,3.1,38,0.00,,,0.00,VWS V14.01,2013-02-15 19:54:00,
2013-02-15 14:59:00,52.3,27.5,29.59,WNW,303,5.4,5.4,38,0.00,,,0.00,VWS V14.01,2013-02-15 19:59:00,
2013-02-15 15:04:00,51.6,26.9,29.59,WNW,293,5.4,5.4,38,0.00,,,0.00,VWS V14.01,2013-02-15 20:04:00,
2013-02-15 15:09:00,51.4,26.7,29.59,WSW,256,3.6,3.6,38,0.00,,,0.00,VWS V14.01,2013-02-15 20:09:00,
2013-02-15 15:14:00,51.1,26.4,29.56,WNW,297,4.0,4.0,38,0.00,,,0.00,VWS V14.01,2013-02-15 20:14:00,
2013-02-15 15:19:00,51.1,26.4,29.56,SW,226,5.4,5.4,38,0.00,,,0.00,VWS V14.01,2013-02-15 20:19:00,
2013-02-15 15:24:00,51.1,27.0,29.56,SW,229,6.3,6.3,39,0.00,,,0.00,VWS V14.01,2013-02-15 20:24:00,
2013-02-15 15:29:00,51.1,27.0,29.56,SW,219,3.6,3.6,39,0.00,,,0.00,VWS V14.01,2013-02-15 20:29:00,
2013-02-15 15:34:00,51.1,27.0,29.56,SW,214,4.0,6.3,39,0.00,,,0.00,VWS V14.01,2013-02-15 20:34:00,
2013-02-15 15:39:00,51.1,27.0,29.56,West,276,2.7,2.7,39,0.00,,,0.00,VWS V14.01,2013-02-15 20:39:00,
2013-02-15 15:44:00,51.1,27.0,29.56,South,179,3.1,3.1,39,0.00,,,0.00,VWS V14.01,2013-02-15 20:44:00,
2013-02-15 15:49:00,51.1,27.0,29.56,West,267,3.1,3.1,39,0.00,,,0.00,VWS V14.01,2013-02-15 20:49:00,
2013-02-15 15:54:00,51.1,27.0,29.56,WSW,244,4.0,4.0,39,0.00,,,0.00,VWS V14.01,2013-02-15 20:54:00,
2013-02-15 15:59:00,50.7,26.7,29.56,SW,224,8.1,8.1,39,0.00,,,0.00,VWS V14.01,2013-02-15 20:59:00,
2013-02-15 16:04:00,50.5,26.5,29.56,NW,306,4.0,4.0,39,0.00,,,0.00,VWS V14.01,2013-02-15 21:04:00,
2013-02-15 16:09:00,50.5,26.5,29.56,WNW,302,0.0,0.0,39,0.00,,,0.00,VWS V14.01,2013-02-15 21:09:00,
2013-02-15 16:14:00,50.4,26.4,29.56,NW,305,0.0,0.0,39,0.00,,,0.00,VWS V14.01,2013-02-15 21:14:00,
2013-02-15 16:19:00,50.4,26.4,29.56,West,266,0.0,5.4,39,0.00,,,0.00,VWS V14.01,2013-02-15 21:19:00,
2013-02-15 16:24:00,50.4,26.4,29.56,West,281,2.2,3.1,39,0.00,,,0.00,VWS V14.01,2013-02-15 21:24:00,
2013-02-15 16:29:00,50.0,26.0,29.56,SW,224,3.6,3.6,39,0.00,,,0.00,VWS V14.01,2013-02-15 21:29:00,
2013-02-15 16:34:00,49.8,26.5,29.56,SW,234,0.0,0.0,40,0.00,,,0.00,VWS V14.01,2013-02-15 21:34:00,
2013-02-15 16:39:00,49.8,26.5,29.56,WSW,252,3.6,3.6,40,0.00,,,0.00,VWS V14.01,2013-02-15 21:39:00,
2013-02-15 16:44:00,49.8,26.5,29.56,SW,232,0.0,0.0,40,0.00,,,0.00,VWS V14.01,2013-02-15 21:44:00,
2013-02-15 16:49:00,49.6,26.3,29.56,SW,219,0.0,0.0,40,0.00,,,0.00,VWS V14.01,2013-02-15 21:49:00,
2013-02-15 16:54:00,49.3,26.0,29.59,SW,222,0.0,0.0,40,0.00,,,0.00,VWS V14.01,2013-02-15 21:54:00,
2013-02-15 16:59:00,48.9,25.7,29.59,SW,234,2.7,2.7,40,0.00,,,0.00,VWS V14.01,2013-02-15 21:59:00,
2013-02-15 17:04:00,48.7,26.1,29.59,West,267,2.7,2.7,41,0.00,,,0.00,VWS V14.01,2013-02-15 22:04:00,
2013-02-15 17:09:00,48.6,26.0,29.56,WSW,248,0.0,0.0,41,0.00,,,0.00,VWS V14.01,2013-02-15 22:09:00,
2013-02-15 17:14:00,48.2,25.6,29.56,WSW,248,0.0,0.0,41,0.00,,,0.00,VWS V14.01,2013-02-15 22:14:00,
2013-02-15 17:19:00,48.0,26.0,29.56,SSW,194,4.0,4.0,42,0.00,,,0.00,VWS V14.01,2013-02-15 22:19:00,
2013-02-15 17:24:00,47.7,25.7,29.56,South,186,0.0,0.0,42,0.00,,,0.00,VWS V14.01,2013-02-15 22:24:00,
2013-02-15 17:29:00,47.5,26.1,29.56,WSW,250,3.6,3.6,43,0.00,,,0.00,VWS V14.01,2013-02-15 22:29:00,
2013-02-15 17:34:00,47.3,26.0,29.56,WSW,249,0.0,0.0,43,0.00,,,0.00,VWS V14.01,2013-02-15 22:34:00,
2013-02-15 17:39:00,46.9,26.2,29.59,WSW,248,0.0,0.0,44,0.00,,,0.00,VWS V14.01,2013-02-15 22:39:00,
2013-02-15 17:44:00,46.8,26.6,29.59,WSW,251,6.3,6.3,45,0.00,,,0.00,VWS V14.01,2013-02-15 22:44:00,
2013-02-15 17:49:00,46.6,26.4,29.59,WSW,253,0.0,0.0,45,0.00,,,0.00,VWS V14.01,2013-02-15 22:49:00,
2013-02-15 17:54:00,46.4,26.8,29.59,WSW,258,2.2,2.2,46,0.00,,,0.00,VWS V14.01,2013-02-15 22:54:00,
2013-02-15 17:59:00,46.2,27.1,29.59,WSW,244,3.1,3.1,47,0.00,,,0.00,VWS V14.01,2013-02-15 22:59:00,
2013-02-15 18:04:00,46.0,27.0,29.59,WSW,248,0.0,0.0,47,0.00,,,0.00,VWS V14.01,2013-02-15 23:04:00,
2013-02-15 18:09:00,45.9,27.3,29.59,SW,226,0.0,0.0,48,0.00,,,0.00,VWS V14.01,2013-02-15 23:09:00,
2013-02-15 18:14:00,45.7,27.1,29.59,West,264,0.0,3.1,48,0.00,,,0.00,VWS V14.01,2013-02-15 23:14:00,
2013-02-15 18:19:00,45.3,26.8,29.59,WSW,239,3.6,3.6,48,0.00,,,0.00,VWS V14.01,2013-02-15 23:19:00,
2013-02-15 18:24:00,45.1,26.6,29.59,WSW,249,0.0,0.0,48,0.00,,,0.00,VWS V14.01,2013-02-15 23:24:00,
2013-02-15 18:29:00,45.1,27.1,29.59,WSW,253,0.0,0.0,49,0.00,,,0.00,VWS V14.01,2013-02-15 23:29:00,
2013-02-15 18:34:00,45.0,27.0,29.59,WSW,254,0.0,0.0,49,0.00,,,0.00,VWS V14.01,2013-02-15 23:34:00,
2013-02-15 18:39:00,44.6,27.1,29.59,WSW,253,3.6,3.6,50,0.00,,,0.00,VWS V14.01,2013-02-15 23:39:00,
2013-02-15 18:44:00,44.4,27.0,29.59,WSW,251,3.1,3.1,50,0.00,,,0.00,VWS V14.01,2013-02-15 23:44:00,
2013-02-15 18:49:00,44.4,27.4,29.59,West,268,0.0,0.0,51,0.00,,,0.00,VWS V14.01,2013-02-15 23:49:00,
2013-02-15 18:54:00,44.4,27.0,29.59,WSW,247,0.0,0.0,50,0.00,,,0.00,VWS V14.01,2013-02-15 23:54:00,
2013-02-15 18:59:00,44.2,27.3,29.59,WSW,258,0.0,0.0,51,0.00,,,0.00,VWS V14.01,2013-02-15 23:59:00,
2013-02-15 19:04:00,44.1,27.1,29.59,WSW,246,0.0,0.0,51,0.00,,,0.00,VWS V14.01,2013-02-16 00:04:00,
2013-02-15 19:09:00,43.9,26.9,29.59,WSW,246,0.0,0.0,51,0.00,,,0.00,VWS V14.01,2013-02-16 00:09:00,
2013-02-15 19:14:00,43.5,26.6,29.59,WSW,246,0.0,0.0,51,0.00,,,0.00,VWS V14.01,2013-02-16 00:14:00,
2013-02-15 19:19:00,43.3,26.4,29.59,WSW,246,0.0,0.0,51,0.00,,,0.00,VWS V14.01,2013-02-16 00:19:00,
2013-02-15 19:24:00,43.0,26.6,29.59,WSW,242,0.0,0.0,52,0.00,,,0.00,VWS V14.01,2013-02-16 00:24:00,
2013-02-15 19:29:00,42.8,25.9,29.59,WSW,242,0.0,0.0,51,0.00,,,0.00,VWS V14.01,2013-02-16 00:29:00,
2013-02-15 19:34:00,42.4,26.1,29.59,WSW,242,0.0,0.0,52,0.00,,,0.00,VWS V14.01,2013-02-16 00:34:00,
2013-02-15 19:39:00,42.1,25.7,29.59,WSW,242,0.0,0.0,52,0.00,,,0.00,VWS V14.01,2013-02-16 00:39:00,
2013-02-15 19:44:00,41.9,26.0,29.59,WSW,242,0.0,0.0,53,0.00,,,0.00,VWS V14.01,2013-02-16 00:44:00,
2013-02-15 19:49:00,41.5,25.7,29.59,WSW,242,0.0,0.0,53,0.00,,,0.00,VWS V14.01,2013-02-16 00:49:00,
2013-02-15 19:54:00,41.2,25.4,29.59,WSW,242,0.0,0.0,53,0.00,,,0.00,VWS V14.01,2013-02-16 00:54:00,
2013-02-15 19:59:00,40.3,25.0,29.59,WSW,242,0.0,0.0,54,0.00,,,0.00,VWS V14.01,2013-02-16 00:59:00,
2013-02-15 20:04:00,39.6,24.3,29.59,WSW,242,0.0,0.0,54,0.00,,,0.00,VWS V14.01,2013-02-16 01:04:00,
2013-02-15 20:09:00,39.2,24.4,29.59,WSW,242,0.0,0.0,55,0.00,,,0.00,VWS V14.01,2013-02-16 01:09:00,
2013-02-15 20:14:00,39.2,24.4,29.59,WSW,242,0.0,0.0,55,0.00,,,0.00,VWS V14.01,2013-02-16 01:14:00,
2013-02-15 20:19:00,38.8,24.5,29.59,WSW,242,0.0,0.0,56,0.00,,,0.00,VWS V14.01,2013-02-16 01:19:00,
2013-02-15 20:24:00,38.5,24.2,29.59,WSW,242,0.0,0.0,56,0.00,,,0.00,VWS V14.01,2013-02-16 01:24:00,
2013-02-15 20:29:00,38.5,24.6,29.59,WSW,242,0.0,0.0,57,0.00,,,0.00,VWS V14.01,2013-02-16 01:29:00,
2013-02-15 20:34:00,38.5,25.0,29.59,WSW,242,0.0,0.0,58,0.00,,,0.00,VWS V14.01,2013-02-16 01:34:00,
2013-02-15 20:39:00,38.5,25.0,29.59,WSW,242,0.0,0.0,58,0.00,,,0.00,VWS V14.01,2013-02-16 01:39:00,
2013-02-15 20:44:00,38.1,24.7,29.59,WSW,242,0.0,0.0,58,0.00,,,0.00,VWS V14.01,2013-02-16 01:44:00,
2013-02-15 20:49:00,37.4,24.4,29.59,WSW,242,0.0,0.0,59,0.00,,,0.00,VWS V14.01,2013-02-16 01:49:00,
2013-02-15 20:54:00,36.7,24.5,29.59,WSW,242,0.0,0.0,61,0.00,,,0.00,VWS V14.01,2013-02-16 01:54:00,
2013-02-15 20:59:00,36.1,25.1,29.59,WSW,242,0.0,0.0,64,0.00,,,0.00,VWS V14.01,2013-02-16 01:59:00,
2013-02-15 21:04:00,36.1,25.5,29.59,WSW,242,0.0,0.0,65,0.00,,,0.00,VWS V14.01,2013-02-16 02:04:00,
2013-02-15 21:09:00,36.7,27.8,29.59,WSW,242,0.0,0.0,70,0.00,,,0.00,VWS V14.01,2013-02-16 02:09:00,
2013-02-15 21:14:00,36.9,28.0,29.62,WSW,242,0.0,0.0,70,0.00,,,0.00,VWS V14.01,2013-02-16 02:14:00,
2013-02-15 21:19:00,36.9,28.0,29.62,SW,230,0.0,0.0,70,0.00,,,0.00,VWS V14.01,2013-02-16 02:19:00,
2013-02-15 21:24:00,36.3,27.5,29.62,SW,229,0.0,0.0,70,0.00,,,0.00,VWS V14.01,2013-02-16 02:24:00,
2013-02-15 21:29:00,36.3,27.5,29.62,SW,229,0.0,0.0,70,0.00,,,0.00,VWS V14.01,2013-02-16 02:29:00,
2013-02-15 21:34:00,36.3,27.5,29.62,SW,229,0.0,0.0,70,0.00,,,0.00,VWS V14.01,2013-02-16 02:34:00,
2013-02-15 21:39:00,36.3,27.5,29.62,SW,229,0.0,0.0,70,0.00,,,0.00,VWS V14.01,2013-02-16 02:39:00,
2013-02-15 21:44:00,36.1,27.3,29.62,SW,229,0.0,0.0,70,0.00,,,0.00,VWS V14.01,2013-02-16 02:44:00,
2013-02-15 21:49:00,35.8,27.0,29.62,SW,229,0.0,0.0,70,0.00,,,0.00,VWS V14.01,2013-02-16 02:49:00,
2013-02-15 21:54:00,35.6,27.1,29.62,SW,229,0.0,0.0,71,0.00,,,0.00,VWS V14.01,2013-02-16 02:54:00,
2013-02-15 21:59:00,35.6,27.1,29.62,SW,229,0.0,0.0,71,0.00,,,0.00,VWS V14.01,2013-02-16 02:59:00,
2013-02-15 22:04:00,35.4,27.0,29.62,SW,229,0.0,0.0,71,0.00,,,0.00,VWS V14.01,2013-02-16 03:04:00,
2013-02-15 22:09:00,35.2,27.1,29.62,SW,229,0.0,0.0,72,0.00,,,0.00,VWS V14.01,2013-02-16 03:09:00,
2013-02-15 22:14:00,35.1,27.0,29.59,SW,229,0.0,0.0,72,0.00,,,0.00,VWS V14.01,2013-02-16 03:14:00,
2013-02-15 22:19:00,35.1,27.0,29.59,SW,229,0.0,0.0,72,0.00,,,0.00,VWS V14.01,2013-02-16 03:19:00,
2013-02-15 22:24:00,34.7,26.6,29.59,SW,229,0.0,0.0,72,0.00,,,0.00,VWS V14.01,2013-02-16 03:24:00,
2013-02-15 22:29:00,34.5,26.4,29.59,SW,229,0.0,0.0,72,0.00,,,0.00,VWS V14.01,2013-02-16 03:29:00,
2013-02-15 22:34:00,34.3,26.3,29.59,SW,229,0.0,0.0,72,0.00,,,0.00,VWS V14.01,2013-02-16 03:34:00,
2013-02-15 22:39:00,34.2,26.1,29.59,SW,229,0.0,0.0,72,0.00,,,0.00,VWS V14.01,2013-02-16 03:39:00,
2013-02-15 22:44:00,34.0,26.2,29.59,SW,229,0.0,0.0,73,0.00,,,0.00,VWS V14.01,2013-02-16 03:44:00,
2013-02-15 22:49:00,34.0,26.2,29.59,SW,229,0.0,0.0,73,0.00,,,0.00,VWS V14.01,2013-02-16 03:49:00,
2013-02-15 22:54:00,34.0,26.2,29.59,SW,229,0.0,0.0,73,0.00,,,0.00,VWS V14.01,2013-02-16 03:54:00,
2013-02-15 22:59:00,34.0,26.2,29.59,SW,229,0.0,0.0,73,0.00,,,0.00,VWS V14.01,2013-02-16 03:59:00,
2013-02-15 23:04:00,33.6,26.2,29.59,SW,229,0.0,0.0,74,0.00,,,0.00,VWS V14.01,2013-02-16 04:04:00,
2013-02-15 23:09:00,33.4,26.1,29.59,SW,229,0.0,0.0,74,0.00,,,0.00,VWS V14.01,2013-02-16 04:09:00,
2013-02-15 23:14:00,33.1,26.0,29.59,SW,229,0.0,0.0,75,0.00,,,0.00,VWS V14.01,2013-02-16 04:14:00,
2013-02-15 23:19:00,32.7,25.7,29.59,SW,229,0.0,0.0,75,0.00,,,0.00,VWS V14.01,2013-02-16 04:19:00,
2013-02-15 23:24:00,32.7,25.7,29.59,SW,229,0.0,0.0,75,0.00,,,0.00,VWS V14.01,2013-02-16 04:24:00,
2013-02-15 23:29:00,32.4,25.3,29.59,SW,229,0.0,0.0,75,0.00,,,0.00,VWS V14.01,2013-02-16 04:29:00,
2013-02-15 23:34:00,32.2,25.2,29.59,SW,229,0.0,0.0,75,0.00,,,0.00,VWS V14.01,2013-02-16 04:34:00,
2013-02-15 23:39:00,31.8,24.8,29.59,SW,229,0.0,0.0,75,0.00,,,0.00,VWS V14.01,2013-02-16 04:39:00,
2013-02-15 23:44:00,31.6,24.6,29.59,SW,229,0.0,0.0,75,0.00,,,0.00,VWS V14.01,2013-02-16 04:44:00,
2013-02-15 23:48:00,31.5,24.5,29.59,SW,229,0.0,0.0,75,0.00,,,0.00,VWS V14.01,2013-02-16 04:48:00,
2013-02-15 23:53:00,31.5,24.5,29.59,SW,229,0.0,0.0,75,0.00,,,0.00,VWS V14.01,2013-02-16 04:53:00,
2013-02-15 23:58:00,31.3,24.6,29.59,SW,229,0.0,0.0,76,0.00,,,0.00,VWS V14.01,2013-02-16 04:58:00,